Time,TemperatureF,DewpointF,PressureIn,WindDirection,WindDirectionDegrees,WindSpeedMPH,WindSpeedGustMPH,Humidity,HourlyPrecipIn,Conditions,Clouds,dailyrainin,SolarRadiationWatts/m^2,SoftwareType,DateUTC
2013-03-11 00:12:00,43.0,11.0,-100.00,NE,51,4.0,6.0,27,0.00,,,-99.99,0.000000,,2013-03-11 07:12:00,
2013-03-11 00:22:00,43.0,11.0,-100.00,NE,51,4.0,6.0,27,0.00,,,-99.99,0.000000,,2013-03-11 07:22:00,
2013-03-11 00:32:00,43.0,11.0,-100.00,NE,51,4.0,6.0,27,0.00,,,-99.99,0.000000,,2013-03-11 07:32:00,
2013-03-11 00:42:00,43.0,11.0,-100.00,NE,51,4.0,6.0,27,0.00,,,-99.99,0.000000,,2013-03-11 07:42:00,
2013-03-11 01:22:00,43.0,10.0,-100.00,NE,51,4.0,7.0,25,0.00,,,0.24,0.000000,,2013-03-11 08:22:00,
2013-03-11 01:32:00,43.0,10.0,-100.00,NE,51,4.0,7.0,25,0.00,,,0.24,0.000000,,2013-03-11 08:32:00,
2013-03-11 01:42:00,43.0,10.0,-100.00,NE,51,4.0,7.0,25,0.00,,,0.24,0.000000,,2013-03-11 08:42:00,
2013-03-11 01:51:00,43.0,10.0,-100.00,NE,51,4.0,7.0,25,0.00,,,0.24,0.000000,,2013-03-11 08:51:00,
2013-03-11 01:52:00,43.0,8.0,-100.00,ENE,57,4.0,7.0,23,0.00,,,0.24,0.000000,,2013-03-11 08:52:00,
2013-03-11 02:12:00,43.0,8.0,-100.00,ENE,57,4.0,7.0,23,0.00,,,0.24,0.000000,,2013-03-11 09:12:00,
2013-03-11 02:22:00,43.0,8.0,-100.00,ENE,57,4.0,7.0,23,0.00,,,0.24,0.000000,,2013-03-11 09:22:00,
2013-03-11 02:32:00,43.0,8.0,-100.00,ENE,57,4.0,7.0,23,0.00,,,0.24,0.000000,,2013-03-11 09:32:00,
2013-03-11 02:42:00,43.0,8.0,-100.00,ENE,57,4.0,7.0,23,0.00,,,0.24,0.000000,,2013-03-11 09:42:00,
2013-03-11 02:52:00,43.0,10.0,-100.00,ENE,62,4.0,8.0,25,0.00,,,-99.99,0.000000,,2013-03-11 09:52:00,
2013-03-11 03:12:00,43.0,10.0,-100.00,ENE,62,4.0,8.0,25,0.00,,,-99.99,0.000000,,2013-03-11 10:12:00,
2013-03-11 03:22:00,43.0,10.0,-100.00,ENE,62,4.0,8.0,25,0.00,,,-99.99,0.000000,,2013-03-11 10:22:00,
2013-03-11 03:32:00,43.0,10.0,-100.00,ENE,62,4.0,8.0,25,0.00,,,-99.99,0.000000,,2013-03-11 10:32:00,
2013-03-11 03:42:00,43.0,10.0,-100.00,ENE,62,4.0,8.0,25,0.00,,,-99.99,0.000000,,2013-03-11 10:42:00,
2013-03-11 03:52:00,42.0,12.0,-100.00,NE,47,3.0,8.0,29,0.00,,,0.24,0.000000,,2013-03-11 10:52:00,
2013-03-11 04:12:00,42.0,12.0,-100.00,NE,47,3.0,8.0,29,0.00,,,0.24,0.000000,,2013-03-11 11:12:00,
2013-03-11 04:22:00,42.0,12.0,-100.00,NE,47,3.0,8.0,29,0.00,,,0.24,0.000000,,2013-03-11 11:22:00,
2013-03-11 04:32:00,42.0,12.0,-100.00,NE,47,3.0,8.0,29,0.00,,,0.24,0.000000,,2013-03-11 11:32:00,
2013-03-11 04:42:00,42.0,12.0,-100.00,NE,47,3.0,8.0,29,0.00,,,0.24,0.000000,,2013-03-11 11:42:00,
2013-03-11 04:52:00,41.0,12.0,-100.00,ENE,59,3.0,6.0,30,0.00,,,-99.99,0.000000,,2013-03-11 11:52:00,
2013-03-11 05:12:00,41.0,12.0,-100.00,ENE,59,3.0,6.0,30,0.00,,,-99.99,0.000000,,2013-03-11 12:12:00,
2013-03-11 05:22:00,41.0,12.0,-100.00,ENE,59,3.0,6.0,30,0.00,,,-99.99,0.000000,,2013-03-11 12:22:00,
2013-03-11 05:32:00,41.0,12.0,-100.00,ENE,59,3.0,6.0,30,0.00,,,-99.99,0.000000,,2013-03-11 12:32:00,
2013-03-11 05:42:00,41.0,12.0,-100.00,ENE,59,3.0,6.0,30,0.00,,,-99.99,0.000000,,2013-03-11 12:42:00,
2013-03-11 05:52:00,42.0,10.0,-100.00,NE,49,3.0,10.0,27,0.00,,,-99.99,0.000000,,2013-03-11 12:52:00,
2013-03-11 06:22:00,42.0,10.0,-100.00,NE,49,3.0,10.0,27,0.00,,,-99.99,0.000000,,2013-03-11 13:22:00,
2013-03-11 06:32:00,42.0,10.0,-100.00,NE,49,3.0,10.0,27,0.00,,,-99.99,0.000000,,2013-03-11 13:32:00,
2013-03-11 06:42:00,42.0,10.0,-100.00,NE,49,3.0,10.0,27,0.00,,,-99.99,0.000000,,2013-03-11 13:42:00,
2013-03-11 06:52:00,42.0,12.0,-100.00,ENE,61,3.0,6.0,29,0.00,,,0.24,0.000000,,2013-03-11 13:52:00,
2013-03-11 07:12:00,42.0,12.0,-100.00,ENE,61,3.0,6.0,29,0.00,,,0.24,0.000000,,2013-03-11 14:12:00,
2013-03-11 07:22:00,42.0,12.0,-100.00,ENE,61,3.0,6.0,29,0.00,,,0.24,0.000000,,2013-03-11 14:22:00,
2013-03-11 07:32:00,42.0,12.0,-100.00,ENE,61,3.0,6.0,29,0.00,,,0.24,0.000000,,2013-03-11 14:32:00,
2013-03-11 07:42:00,42.0,12.0,-100.00,ENE,61,3.0,6.0,29,0.00,,,0.24,0.000000,,2013-03-11 14:42:00,
2013-03-11 07:52:00,44.0,14.0,-100.00,NE,54,3.0,7.0,29,0.00,,,0.24,12.000000,,2013-03-11 14:52:00,
2013-03-11 08:22:00,44.0,14.0,-100.00,NE,54,3.0,7.0,29,0.00,,,0.24,12.000000,,2013-03-11 15:22:00,
2013-03-11 08:32:00,44.0,14.0,-100.00,NE,54,3.0,7.0,29,0.00,,,0.24,12.000000,,2013-03-11 15:32:00,
2013-03-11 08:42:00,44.0,14.0,-100.00,NE,54,3.0,7.0,29,0.00,,,0.24,12.000000,,2013-03-11 15:42:00,
2013-03-11 09:12:00,49.0,16.0,-100.00,ENE,57,3.0,7.0,27,0.00,,,0.23,125.000000,,2013-03-11 16:12:00,
2013-03-11 09:22:00,49.0,16.0,-100.00,ENE,57,3.0,7.0,27,0.00,,,0.23,125.000000,,2013-03-11 16:22:00,
2013-03-11 09:32:00,49.0,16.0,-100.00,ENE,57,3.0,7.0,27,0.00,,,0.23,125.000000,,2013-03-11 16:32:00,
2013-03-11 09:42:00,49.0,16.0,-100.00,ENE,57,3.0,7.0,27,0.00,,,0.23,125.000000,,2013-03-11 16:42:00,
2013-03-11 09:51:00,49.0,16.0,-100.00,ENE,57,3.0,7.0,27,0.00,,,0.23,125.000000,,2013-03-11 16:51:00,
2013-03-11 09:52:00,57.0,19.0,-100.00,ENE,62,5.0,10.0,22,0.00,,,-99.99,421.000000,,2013-03-11 16:52:00,
2013-03-11 10:13:00,57.0,19.0,-100.00,ENE,62,5.0,10.0,22,0.00,,,-99.99,421.000000,,2013-03-11 17:13:00,
2013-03-11 10:24:00,57.0,19.0,-100.00,ENE,62,5.0,10.0,22,0.00,,,-99.99,421.000000,,2013-03-11 17:24:00,
2013-03-11 10:42:00,57.0,19.0,-100.00,ENE,62,5.0,10.0,22,0.00,,,-99.99,421.000000,,2013-03-11 17:42:00,
2013-03-11 11:12:00,60.0,19.0,-100.00,NE,51,4.0,10.0,20,0.00,,,0.15,689.000000,,2013-03-11 18:12:00,
2013-03-11 11:22:00,60.0,19.0,-100.00,NE,51,4.0,10.0,20,0.00,,,0.15,689.000000,,2013-03-11 18:22:00,
2013-03-11 12:22:00,62.0,18.0,-100.00,East,79,4.0,9.0,18,-99.99,,,0.05,840.000000,,2013-03-11 19:22:00,
2013-03-11 13:22:00,64.0,18.0,-100.00,ENE,58,3.0,8.0,17,-99.99,,,0.00,927.000000,,2013-03-11 20:22:00,
2013-03-11 14:22:00,65.0,19.0,-100.00,East,88,2.0,6.0,17,-99.99,,,0.00,941.000000,,2013-03-11 21:22:00,
2013-03-11 15:22:00,65.0,18.0,-100.00,North,11,2.0,6.0,16,-99.99,,,0.00,883.000000,,2013-03-11 22:22:00,
2013-03-11 16:12:00,63.0,20.0,-100.00,East,91,3.0,6.0,19,-99.99,,,0.00,756.000000,,2013-03-11 23:12:00,
2013-03-11 16:22:00,63.0,20.0,-100.00,East,91,3.0,6.0,19,-99.99,,,0.00,756.000000,,2013-03-11 23:22:00,
2013-03-11 16:32:00,63.0,20.0,-100.00,East,91,3.0,6.0,19,-99.99,,,0.00,756.000000,,2013-03-11 23:32:00,
2013-03-11 16:52:00,60.0,19.0,-100.00,NNE,30,2.0,5.0,20,-99.99,,,0.00,568.000000,,2013-03-11 23:52:00,
2013-03-11 17:12:00,60.0,19.0,-100.00,NNE,30,2.0,5.0,20,-99.99,,,0.00,568.000000,,2013-03-12 00:12:00,
2013-03-11 17:22:00,60.0,19.0,-100.00,NNE,30,2.0,5.0,20,-99.99,,,0.00,568.000000,,2013-03-12 00:22:00,
2013-03-11 17:32:00,60.0,19.0,-100.00,NNE,30,2.0,5.0,20,-99.99,,,0.00,568.000000,,2013-03-12 00:32:00,
2013-03-11 17:42:00,60.0,19.0,-100.00,NNE,30,2.0,5.0,20,-99.99,,,0.00,568.000000,,2013-03-12 00:42:00,
2013-03-11 17:52:00,55.0,23.0,-100.00,WNW,289,2.0,4.0,28,0.00,,,0.00,132.000000,,2013-03-12 00:52:00,
2013-03-11 18:22:00,55.0,23.0,-100.00,WNW,289,2.0,4.0,28,0.00,,,0.00,132.000000,,2013-03-12 01:22:00,
2013-03-11 18:32:00,55.0,23.0,-100.00,WNW,289,2.0,4.0,28,0.00,,,0.00,132.000000,,2013-03-12 01:32:00,
2013-03-11 18:42:00,55.0,23.0,-100.00,WNW,289,2.0,4.0,28,0.00,,,0.00,132.000000,,2013-03-12 01:42:00,
2013-03-11 19:22:00,46.0,26.0,-100.00,ENE,68,0.0,4.0,45,0.00,,,0.00,16.000000,,2013-03-12 02:22:00,
2013-03-11 19:32:00,46.0,26.0,-100.00,ENE,68,0.0,4.0,45,0.00,,,0.00,16.000000,,2013-03-12 02:32:00,
2013-03-11 19:42:00,46.0,26.0,-100.00,ENE,68,0.0,4.0,45,0.00,,,0.00,16.000000,,2013-03-12 02:42:00,
2013-03-11 19:51:00,46.0,26.0,-100.00,ENE,68,0.0,4.0,45,0.00,,,0.00,16.000000,,2013-03-12 02:51:00,
2013-03-11 20:12:00,37.0,25.0,-100.00,ENE,63,0.0,2.0,62,0.00,,,-99.99,1.000000,,2013-03-12 03:12:00,
2013-03-11 20:22:00,37.0,25.0,-100.00,ENE,63,0.0,2.0,62,0.00,,,-99.99,1.000000,,2013-03-12 03:22:00,
2013-03-11 21:12:00,34.0,23.0,-100.00,ESE,110,0.0,2.0,65,-99.99,,,0.00,0.000000,,2013-03-12 04:12:00,
2013-03-11 22:12:00,34.0,26.0,-100.00,NE,48,0.0,2.0,71,-99.99,,,0.00,0.000000,,2013-03-12 05:12:00,
2013-03-11 23:12:00,34.0,25.0,-100.00,ENE,64,0.0,2.0,69,0.00,,,-99.99,0.000000,,2013-03-12 06:12:00,
2013-03-11 23:22:00,34.0,25.0,-100.00,ENE,64,0.0,2.0,69,0.00,,,-99.99,0.000000,,2013-03-12 06:22:00,